Time,TemperatureF,DewpointF,PressureIn,WindDirection,WindDirectionDegrees,WindSpeedMPH,WindSpeedGustMPH,Humidity,HourlyPrecipIn,Conditions,Clouds,dailyrainin,SoftwareType,DateUTC
2013-03-03 00:03:00,57.4,25.4,30.09,ESE,112,0.0,0.0,29,0.00,,---,0.00,VWS V14.01,2013-03-03 07:03:00,
2013-03-03 00:08:00,57.0,25.9,30.09,NNW,338,0.0,0.0,30,0.00,,---,0.00,VWS V14.01,2013-03-03 07:08:00,
2013-03-03 00:13:00,57.2,26.1,30.09,NNW,338,0.0,0.0,30,0.00,,---,0.00,VWS V14.01,2013-03-03 07:13:00,
2013-03-03 00:18:00,56.5,25.4,30.09,ESE,112,0.0,0.0,30,0.00,,---,0.00,VWS V14.01,2013-03-03 07:18:00,
2013-03-03 00:23:00,55.9,25.0,30.09,ESE,112,0.0,0.0,30,0.00,,---,0.00,VWS V14.01,2013-03-03 07:23:00,
2013-03-03 00:28:00,55.4,24.5,30.09,North,0,0.0,0.0,30,0.00,,---,0.00,VWS V14.01,2013-03-03 07:28:00,
2013-03-03 00:33:00,55.2,25.1,30.09,North,0,0.0,0.0,31,0.00,,---,0.00,VWS V14.01,2013-03-03 07:33:00,
2013-03-03 00:38:00,54.7,24.7,30.09,NNW,338,0.0,0.0,31,0.00,,---,0.00,VWS V14.01,2013-03-03 07:38:00,
2013-03-03 00:43:00,54.5,26.0,30.06,NNW,338,0.0,0.0,33,0.00,,---,0.00,VWS V14.01,2013-03-03 07:43:00,
2013-03-03 00:49:00,54.5,26.0,30.06,NNW,338,0.0,0.0,33,0.00,,---,0.00,VWS V14.01,2013-03-03 07:49:00,
2013-03-03 00:54:00,54.0,25.5,30.06,NW,315,0.0,0.0,33,0.00,,---,0.00,VWS V14.01,2013-03-03 07:54:00,
2013-03-03 00:59:00,53.8,25.4,30.09,NNW,338,0.0,0.0,33,0.00,,---,0.00,VWS V14.01,2013-03-03 07:59:00,
2013-03-03 01:04:00,53.2,25.6,30.09,NNW,338,0.0,0.0,34,0.00,,---,0.00,VWS V14.01,2013-03-03 08:04:00,
2013-03-03 01:09:00,52.9,25.3,30.09,NNW,338,0.0,0.0,34,0.00,,---,0.00,VWS V14.01,2013-03-03 08:09:00,
2013-03-03 01:14:00,52.5,25.0,30.09,NNW,338,0.0,0.0,34,0.00,,---,0.00,VWS V14.01,2013-03-03 08:14:00,
2013-03-03 01:19:00,52.0,25.9,30.09,North,0,0.0,0.0,36,0.00,,---,0.00,VWS V14.01,2013-03-03 08:19:00,
2013-03-03 01:24:00,52.3,26.2,30.09,North,0,0.0,0.0,36,0.00,,---,0.00,VWS V14.01,2013-03-03 08:24:00,
2013-03-03 01:29:00,53.1,26.8,30.09,North,0,0.0,0.0,36,0.00,,---,0.00,VWS V14.01,2013-03-03 08:29:00,
2013-03-03 01:34:00,53.4,27.1,30.09,NE,45,0.0,0.0,36,0.00,,---,0.00,VWS V14.01,2013-03-03 08:34:00,
2013-03-03 01:39:00,53.2,27.0,30.09,NW,315,0.0,0.0,36,0.00,,---,0.00,VWS V14.01,2013-03-03 08:39:00,
2013-03-03 01:44:00,53.1,27.5,30.06,NNW,338,0.0,0.0,37,0.00,,---,0.00,VWS V14.01,2013-03-03 08:44:00,
2013-03-03 01:50:00,53.1,27.5,30.06,NNW,338,0.0,0.0,37,0.00,,---,0.00,VWS V14.01,2013-03-03 08:50:00,
2013-03-03 01:55:00,52.9,27.3,30.06,NNW,338,0.0,0.0,37,0.00,,---,0.00,VWS V14.01,2013-03-03 08:55:00,
2013-03-03 02:00:00,53.1,27.5,30.06,North,0,0.0,0.0,37,0.00,,---,0.00,VWS V14.01,2013-03-03 09:00:00,
2013-03-03 02:05:00,53.1,27.5,30.06,NNW,338,0.0,0.0,37,0.00,,---,0.00,VWS V14.01,2013-03-03 09:05:00,
2013-03-03 02:10:00,53.1,27.5,30.06,North,0,0.0,0.0,37,0.00,,---,0.00,VWS V14.01,2013-03-03 09:10:00,
2013-03-03 02:15:00,53.2,27.7,30.06,NNW,338,0.0,0.0,37,0.00,,---,0.00,VWS V14.01,2013-03-03 09:15:00,
2013-03-03 02:20:00,53.2,27.7,30.06,NNW,338,0.0,0.0,37,0.00,,---,0.00,VWS V14.01,2013-03-03 09:20:00,
2013-03-03 02:25:00,52.5,27.0,30.06,SE,135,0.0,0.0,37,0.00,,---,0.00,VWS V14.01,2013-03-03 09:25:00,
2013-03-03 02:30:00,51.8,25.7,30.06,East,90,0.0,0.0,36,0.00,,---,0.00,VWS V14.01,2013-03-03 09:30:00,
2013-03-03 02:36:00,51.4,26.0,30.06,ENE,68,0.0,0.0,37,0.00,,---,0.00,VWS V14.01,2013-03-03 09:36:00,
2013-03-03 02:41:00,50.9,25.6,30.06,NE,45,0.0,0.0,37,0.00,,---,0.00,VWS V14.01,2013-03-03 09:41:00,
2013-03-03 02:46:00,50.7,26.0,30.06,NNW,338,0.0,0.0,38,0.00,,---,0.00,VWS V14.01,2013-03-03 09:46:00,
2013-03-03 02:51:00,50.5,25.9,30.06,NNW,338,0.0,0.0,38,0.00,,---,0.00,VWS V14.01,2013-03-03 09:51:00,
2013-03-03 02:56:00,50.4,25.7,30.03,NW,315,0.0,0.0,38,0.00,,---,0.00,VWS V14.01,2013-03-03 09:56:00,
2013-03-03 03:01:00,50.2,25.6,30.03,NNW,338,0.0,0.0,38,0.00,,---,0.00,VWS V14.01,2013-03-03 10:01:00,
2013-03-03 03:06:00,50.2,25.6,30.03,NNW,338,0.0,0.0,38,0.00,,---,0.00,VWS V14.01,2013-03-03 10:06:00,
2013-03-03 03:11:00,50.4,26.4,30.03,NNW,338,0.0,0.0,39,0.00,,---,0.00,VWS V14.01,2013-03-03 10:11:00,
2013-03-03 03:16:00,50.5,26.5,30.03,NW,315,0.0,0.0,39,0.00,,---,0.00,VWS V14.01,2013-03-03 10:16:00,
2013-03-03 03:21:00,50.9,26.2,30.03,NW,315,0.0,0.0,38,0.00,,---,0.00,VWS V14.01,2013-03-03 10:21:00,
2013-03-03 03:26:00,51.1,26.4,30.03,NNW,338,0.0,0.0,38,0.00,,---,0.00,VWS V14.01,2013-03-03 10:26:00,
2013-03-03 03:31:00,50.7,26.0,30.03,North,0,0.0,0.0,38,0.00,,---,0.00,VWS V14.01,2013-03-03 10:31:00,
2013-03-03 03:36:00,50.5,25.9,30.03,SW,225,0.0,0.0,38,0.00,,---,0.00,VWS V14.01,2013-03-03 10:36:00,
2013-03-03 03:41:00,50.2,25.6,30.03,SW,225,0.0,0.0,38,0.00,,---,0.00,VWS V14.01,2013-03-03 10:41:00,
2013-03-03 03:46:00,49.8,25.2,30.03,WSW,248,0.0,0.0,38,0.00,,---,0.00,VWS V14.01,2013-03-03 10:46:00,
2013-03-03 03:51:00,49.3,24.8,30.03,WSW,248,0.0,0.0,38,0.00,,---,0.00,VWS V14.01,2013-03-03 10:51:00,
2013-03-03 03:56:00,48.6,24.1,30.03,SE,135,0.0,0.0,38,0.00,,---,0.00,VWS V14.01,2013-03-03 10:56:00,
2013-03-03 04:01:00,48.2,24.4,30.03,NNE,22,0.0,0.0,39,0.00,,---,0.00,VWS V14.01,2013-03-03 11:01:00,
2013-03-03 04:06:00,48.0,24.3,30.03,NNW,338,0.0,0.0,39,0.00,,---,0.00,VWS V14.01,2013-03-03 11:06:00,
2013-03-03 04:11:00,48.0,24.9,30.03,North,0,0.0,0.0,40,0.00,,---,0.00,VWS V14.01,2013-03-03 11:11:00,
2013-03-03 04:16:00,48.2,25.0,30.03,North,0,0.0,0.0,40,0.00,,---,0.00,VWS V14.01,2013-03-03 11:16:00,
2013-03-03 04:22:00,48.2,25.0,30.03,NNE,22,0.0,0.0,40,0.00,,---,0.00,VWS V14.01,2013-03-03 11:22:00,
2013-03-03 04:27:00,48.2,25.0,30.03,NNW,338,0.0,0.0,40,0.00,,---,0.00,VWS V14.01,2013-03-03 11:27:00,
2013-03-03 04:32:00,48.0,25.5,30.03,NNW,338,0.0,0.0,41,0.00,,---,0.00,VWS V14.01,2013-03-03 11:32:00,
2013-03-03 04:37:00,48.0,25.5,30.03,NNW,338,0.0,0.0,41,0.00,,---,0.00,VWS V14.01,2013-03-03 11:37:00,
2013-03-03 04:42:00,47.7,25.1,30.03,NNW,338,0.0,0.0,41,0.00,,---,0.00,VWS V14.01,2013-03-03 11:42:00,
2013-03-03 04:47:00,47.3,24.8,30.03,West,270,0.0,0.0,41,0.00,,---,0.00,VWS V14.01,2013-03-03 11:47:00,
2013-03-03 04:52:00,47.1,24.1,30.03,West,270,0.0,0.0,40,0.00,,---,0.00,VWS V14.01,2013-03-03 11:52:00,
2013-03-03 04:57:00,46.9,23.9,30.03,NW,315,0.0,0.0,40,0.00,,---,0.00,VWS V14.01,2013-03-03 11:57:00,
2013-03-03 05:02:00,47.1,25.2,30.03,NNW,338,0.0,0.0,42,0.00,,---,0.00,VWS V14.01,2013-03-03 12:02:00,
2013-03-03 05:07:00,47.5,25.5,30.03,NNW,338,0.0,0.0,42,0.00,,---,0.00,VWS V14.01,2013-03-03 12:07:00,
2013-03-03 05:12:00,47.7,25.7,30.03,NW,315,0.0,0.0,42,0.00,,---,0.00,VWS V14.01,2013-03-03 12:12:00,
2013-03-03 05:17:00,48.0,25.5,30.03,NNW,338,0.0,0.0,41,0.00,,---,0.00,VWS V14.01,2013-03-03 12:17:00,
2013-03-03 05:22:00,47.8,25.9,30.03,NE,45,0.0,0.0,42,0.00,,---,0.00,VWS V14.01,2013-03-03 12:22:00,
2013-03-03 05:27:00,47.7,26.3,30.03,ENE,68,0.0,0.0,43,0.00,,---,0.00,VWS V14.01,2013-03-03 12:27:00,
2013-03-03 05:32:00,48.0,26.0,30.03,NNW,338,0.0,0.0,42,0.00,,---,0.00,VWS V14.01,2013-03-03 12:32:00,
2013-03-03 05:37:00,47.8,25.9,30.03,NNW,338,0.0,0.0,42,0.00,,---,0.00,VWS V14.01,2013-03-03 12:37:00,
2013-03-03 05:43:00,48.0,26.0,30.03,NNW,338,0.0,0.0,42,0.00,,---,0.00,VWS V14.01,2013-03-03 12:43:00,
2013-03-03 05:48:00,48.0,26.0,30.03,NNW,338,0.0,0.0,42,0.00,,---,0.00,VWS V14.01,2013-03-03 12:48:00,
2013-03-03 05:53:00,47.8,25.9,30.03,NNW,338,0.0,0.0,42,0.00,,---,0.00,VWS V14.01,2013-03-03 12:53:00,
2013-03-03 05:58:00,47.8,25.9,30.03,NNW,338,0.0,0.0,42,0.00,,---,0.00,VWS V14.01,2013-03-03 12:58:00,
2013-03-03 06:03:00,48.0,25.5,30.03,NNW,338,0.0,0.0,41,0.00,,---,0.00,VWS V14.01,2013-03-03 13:03:00,
2013-03-03 06:08:00,48.2,25.6,30.03,NNW,338,0.0,0.0,41,0.00,,---,0.00,VWS V14.01,2013-03-03 13:08:00,
2013-03-03 06:13:00,48.2,25.6,30.03,NNW,338,0.0,0.0,41,0.00,,---,0.00,VWS V14.01,2013-03-03 13:13:00,
2013-03-03 06:18:00,48.2,25.6,30.03,NNW,338,0.0,0.0,41,0.00,,---,0.00,VWS V14.01,2013-03-03 13:18:00,
2013-03-03 06:23:00,48.2,25.0,30.03,NNW,338,0.0,0.0,40,0.00,,---,0.00,VWS V14.01,2013-03-03 13:23:00,
2013-03-03 06:28:00,48.0,25.5,30.03,NNW,338,0.0,0.0,41,0.00,,---,0.00,VWS V14.01,2013-03-03 13:28:00,
2013-03-03 06:33:00,47.3,24.8,30.03,NNW,338,0.0,0.0,41,0.00,,---,0.00,VWS V14.01,2013-03-03 13:33:00,
2013-03-03 06:38:00,47.3,24.8,30.03,NNW,338,0.0,0.0,41,0.00,,---,0.00,VWS V14.01,2013-03-03 13:38:00,
2013-03-03 06:43:00,47.1,25.2,30.03,NNW,338,0.0,0.0,42,0.00,,---,0.00,VWS V14.01,2013-03-03 13:43:00,
2013-03-03 06:48:00,46.8,24.9,30.03,NNW,338,0.0,0.0,42,0.00,,---,0.00,VWS V14.01,2013-03-03 13:48:00,
2013-03-03 06:54:00,46.6,25.3,30.03,NNW,338,0.0,0.0,43,0.00,,---,0.00,VWS V14.01,2013-03-03 13:54:00,
2013-03-03 06:59:00,46.4,24.6,30.03,NNW,338,0.0,0.0,42,0.00,,---,0.00,VWS V14.01,2013-03-03 13:59:00,
2013-03-03 07:04:00,46.2,24.4,30.03,NNW,338,0.0,0.0,42,0.00,,---,0.00,VWS V14.01,2013-03-03 14:04:00,
2013-03-03 07:09:00,46.4,25.1,30.03,NNW,338,0.0,0.0,43,0.00,,---,0.00,VWS V14.01,2013-03-03 14:09:00,
2013-03-03 07:14:00,46.6,25.3,30.03,NNW,338,0.0,0.0,43,0.00,,---,0.00,VWS V14.01,2013-03-03 14:14:00,
2013-03-03 07:19:00,46.9,25.6,30.03,NNW,338,0.0,0.0,43,0.00,,---,0.00,VWS V14.01,2013-03-03 14:19:00,
2013-03-03 07:24:00,47.1,25.8,30.03,SSW,202,0.0,0.0,43,0.00,,---,0.00,VWS V14.01,2013-03-03 14:24:00,
2013-03-03 07:29:00,47.3,26.0,30.03,NW,315,0.0,0.0,43,0.00,,---,0.00,VWS V14.01,2013-03-03 14:29:00,
2013-03-03 07:34:00,47.8,26.4,30.03,ESE,112,0.0,0.0,43,0.00,,---,0.00,VWS V14.01,2013-03-03 14:34:00,
2013-03-03 07:39:00,48.4,26.9,30.03,South,180,0.0,0.0,43,0.00,,---,0.00,VWS V14.01,2013-03-03 14:39:00,
2013-03-03 07:44:00,49.1,28.1,30.03,SE,135,0.0,0.0,44,0.00,,---,0.00,VWS V14.01,2013-03-03 14:44:00,
2013-03-03 07:49:00,49.6,28.6,30.03,ESE,112,0.0,0.0,44,0.00,,---,0.00,VWS V14.01,2013-03-03 14:49:00,
2013-03-03 07:54:00,50.5,28.9,30.03,East,90,0.0,0.0,43,0.00,,---,0.00,VWS V14.01,2013-03-03 14:54:00,
2013-03-03 07:59:00,51.3,29.0,30.03,NNW,338,0.0,0.0,42,0.00,,---,0.00,VWS V14.01,2013-03-03 14:59:00,
2013-03-03 08:04:00,52.2,29.2,30.03,NNE,22,0.0,0.0,41,0.00,,---,0.00,VWS V14.01,2013-03-03 15:04:00,
2013-03-03 08:10:00,52.7,29.1,30.03,ENE,68,0.0,0.0,40,0.00,,---,0.00,VWS V14.01,2013-03-03 15:10:00,
2013-03-03 08:15:00,54.0,29.6,30.06,NE,45,0.0,0.0,39,0.00,,---,0.00,VWS V14.01,2013-03-03 15:15:00,
2013-03-03 08:20:00,55.2,30.7,30.06,NNE,22,0.0,0.0,39,0.00,,---,0.00,VWS V14.01,2013-03-03 15:20:00,
2013-03-03 08:25:00,56.3,31.0,30.06,NNW,338,0.0,0.0,38,0.00,,---,0.00,VWS V14.01,2013-03-03 15:25:00,
2013-03-03 08:30:00,57.4,31.3,30.06,North,0,0.0,0.0,37,0.00,,---,0.00,VWS V14.01,2013-03-03 15:30:00,
2013-03-03 08:35:00,58.3,32.2,30.06,North,0,0.0,0.0,37,0.00,,---,0.00,VWS V14.01,2013-03-03 15:35:00,
2013-03-03 08:40:00,59.4,32.4,30.06,NNE,22,0.0,0.0,36,0.00,,---,0.00,VWS V14.01,2013-03-03 15:40:00,
2013-03-03 08:45:00,59.9,32.9,30.06,East,90,0.0,0.0,36,0.00,,---,0.00,VWS V14.01,2013-03-03 15:45:00,
2013-03-03 08:50:00,60.8,33.0,30.06,ESE,112,0.0,0.0,35,0.00,,---,0.00,VWS V14.01,2013-03-03 15:50:00,
2013-03-03 08:55:00,61.7,34.5,30.06,SE,135,0.0,0.0,36,0.00,,---,0.00,VWS V14.01,2013-03-03 15:55:00,
2013-03-03 09:00:00,62.6,34.6,30.06,SE,135,0.0,0.0,35,0.00,,---,0.00,VWS V14.01,2013-03-03 16:00:00,
2013-03-03 09:06:00,63.5,35.4,30.06,SE,135,0.0,0.0,35,0.00,,---,0.00,VWS V14.01,2013-03-03 16:06:00,
2013-03-03 09:11:00,64.2,35.3,30.06,ESE,112,0.0,0.0,34,0.00,,---,0.00,VWS V14.01,2013-03-03 16:11:00,
2013-03-03 09:16:00,64.4,35.5,30.06,ESE,112,0.0,0.0,34,0.00,,---,0.00,VWS V14.01,2013-03-03 16:16:00,
2013-03-03 09:21:00,64.8,35.8,30.06,SE,135,0.0,0.0,34,0.00,,---,0.00,VWS V14.01,2013-03-03 16:21:00,
2013-03-03 09:26:00,65.7,36.6,30.06,East,90,0.0,0.0,34,0.00,,---,0.00,VWS V14.01,2013-03-03 16:26:00,
2013-03-03 09:31:00,66.0,36.1,30.06,SE,135,0.0,0.0,33,0.00,,---,0.00,VWS V14.01,2013-03-03 16:31:00,
2013-03-03 09:36:00,66.7,36.8,30.06,SSE,158,0.0,0.0,33,0.00,,---,0.00,VWS V14.01,2013-03-03 16:36:00,
2013-03-03 09:41:00,67.3,37.2,30.06,SE,135,0.0,0.0,33,0.00,,---,0.00,VWS V14.01,2013-03-03 16:41:00,
2013-03-03 09:46:00,68.4,37.4,30.06,SSE,158,0.0,0.0,32,0.00,,---,0.00,VWS V14.01,2013-03-03 16:46:00,
2013-03-03 09:51:00,69.1,37.2,30.06,ESE,112,0.0,0.0,31,0.00,,---,0.00,VWS V14.01,2013-03-03 16:51:00,
2013-03-03 09:56:00,69.8,37.0,30.03,South,180,0.0,0.0,30,0.00,,---,0.00,VWS V14.01,2013-03-03 16:56:00,
2013-03-03 10:01:00,70.3,36.6,30.03,South,180,0.0,0.0,29,0.00,,---,0.00,VWS V14.01,2013-03-03 17:01:00,
2013-03-03 10:06:00,71.1,36.3,30.03,South,180,0.0,0.0,28,0.00,,---,0.00,VWS V14.01,2013-03-03 17:06:00,
2013-03-03 10:11:00,71.4,36.7,30.03,SSE,158,0.0,0.0,28,0.00,,---,0.00,VWS V14.01,2013-03-03 17:11:00,
2013-03-03 10:16:00,71.8,36.0,30.03,South,180,0.0,0.0,27,0.00,,---,0.00,VWS V14.01,2013-03-03 17:16:00,
2013-03-03 10:21:00,72.1,35.4,30.03,East,90,0.0,0.0,26,0.00,,---,0.00,VWS V14.01,2013-03-03 17:21:00,
2013-03-03 10:26:00,72.7,35.8,30.03,SSE,158,0.0,0.0,26,0.00,,---,0.00,VWS V14.01,2013-03-03 17:26:00,
2013-03-03 10:32:00,73.2,36.3,30.03,ESE,112,0.0,0.0,26,0.00,,---,0.00,VWS V14.01,2013-03-03 17:32:00,
2013-03-03 10:37:00,73.9,35.9,30.03,SW,225,0.0,0.0,25,0.00,,---,0.00,VWS V14.01,2013-03-03 17:37:00,
2013-03-03 10:42:00,74.5,36.4,30.03,South,180,0.0,0.0,25,0.00,,---,0.00,VWS V14.01,2013-03-03 17:42:00,
2013-03-03 10:47:00,74.5,35.4,30.03,SE,135,0.0,0.0,24,0.00,,---,0.00,VWS V14.01,2013-03-03 17:47:00,
2013-03-03 10:52:00,74.8,35.7,30.03,West,270,0.0,0.0,24,0.00,,---,0.00,VWS V14.01,2013-03-03 17:52:00,
2013-03-03 10:57:00,75.2,34.9,30.03,SW,225,0.0,0.0,23,0.00,,---,0.00,VWS V14.01,2013-03-03 17:57:00,
2013-03-03 11:02:00,75.0,34.7,30.03,WSW,248,1.1,3.6,23,0.00,,---,0.00,VWS V14.01,2013-03-03 18:02:00,
2013-03-03 11:07:00,75.2,33.8,30.03,WSW,248,0.0,0.0,22,0.00,,---,0.00,VWS V14.01,2013-03-03 18:07:00,
2013-03-03 11:12:00,75.7,34.2,30.03,SW,225,0.0,3.6,22,0.00,,---,0.00,VWS V14.01,2013-03-03 18:12:00,
2013-03-03 11:17:00,75.9,34.4,30.03,SSE,158,0.0,0.0,22,0.00,,---,0.00,VWS V14.01,2013-03-03 18:17:00,
2013-03-03 11:22:00,76.1,34.5,30.03,SSW,202,0.0,0.0,22,0.00,,---,0.00,VWS V14.01,2013-03-03 18:22:00,
2013-03-03 11:27:00,76.1,34.5,30.03,SW,225,0.0,0.0,22,0.00,,---,0.00,VWS V14.01,2013-03-03 18:27:00,
2013-03-03 11:32:00,76.1,33.4,30.03,WSW,248,0.9,1.6,21,0.00,,---,0.00,VWS V14.01,2013-03-03 18:32:00,
2013-03-03 11:37:00,76.3,34.7,30.03,SW,225,0.0,3.1,22,0.00,,---,0.00,VWS V14.01,2013-03-03 18:37:00,
2013-03-03 11:42:00,76.5,34.8,30.03,SSE,158,0.0,1.3,22,0.00,,---,0.00,VWS V14.01,2013-03-03 18:42:00,
2013-03-03 11:47:00,76.8,35.1,30.03,SW,225,0.0,2.0,22,0.00,,---,0.00,VWS V14.01,2013-03-03 18:47:00,
2013-03-03 11:52:00,77.0,34.1,30.03,South,180,0.0,0.0,21,0.00,,---,0.00,VWS V14.01,2013-03-03 18:52:00,
2013-03-03 11:58:00,77.2,34.3,30.03,SW,225,0.0,0.0,21,0.00,,---,0.00,VWS V14.01,2013-03-03 18:58:00,
2013-03-03 12:03:00,77.5,34.6,30.03,SSE,158,0.0,0.0,21,0.00,,---,0.00,VWS V14.01,2013-03-03 19:03:00,
2013-03-03 12:08:00,77.9,34.9,30.03,SE,135,0.0,0.0,21,0.00,,---,0.00,VWS V14.01,2013-03-03 19:08:00,
2013-03-03 12:13:00,78.8,35.6,30.00,WSW,248,0.0,0.0,21,0.00,,---,0.00,VWS V14.01,2013-03-03 19:13:00,
2013-03-03 12:18:00,79.3,34.8,30.00,SW,225,0.0,0.0,20,0.00,,---,0.00,VWS V14.01,2013-03-03 19:18:00,
2013-03-03 12:23:00,80.1,35.4,30.00,SW,225,0.0,0.0,20,0.00,,---,0.00,VWS V14.01,2013-03-03 19:23:00,
2013-03-03 12:28:00,79.2,34.7,30.00,South,180,0.0,0.0,20,0.00,,---,0.00,VWS V14.01,2013-03-03 19:28:00,
2013-03-03 12:33:00,79.2,34.7,30.00,SW,225,0.0,0.0,20,0.00,,---,0.00,VWS V14.01,2013-03-03 19:33:00,
2013-03-03 12:38:00,78.6,34.2,30.00,SW,225,0.0,0.0,20,0.00,,---,0.00,VWS V14.01,2013-03-03 19:38:00,
2013-03-03 12:43:00,78.3,33.9,30.00,ESE,112,0.0,0.0,20,0.00,,---,0.00,VWS V14.01,2013-03-03 19:43:00,
2013-03-03 12:48:00,78.3,33.9,30.00,SW,225,0.0,0.0,20,0.00,,---,0.00,VWS V14.01,2013-03-03 19:48:00,
2013-03-03 12:53:00,78.1,33.8,30.00,SSE,158,0.0,0.0,20,0.00,,---,0.00,VWS V14.01,2013-03-03 19:53:00,
2013-03-03 12:58:00,78.3,33.9,29.97,South,180,0.0,0.0,20,0.00,,---,0.00,VWS V14.01,2013-03-03 19:58:00,
2013-03-03 13:04:00,79.0,34.5,29.97,NW,315,0.0,0.0,20,0.00,,---,0.00,VWS V14.01,2013-03-03 20:04:00,
2013-03-03 13:09:00,79.2,34.7,29.97,NNW,338,0.0,0.0,20,0.00,,---,0.00,VWS V14.01,2013-03-03 20:09:00,
2013-03-03 13:14:00,79.0,34.5,29.97,NNE,22,0.0,0.0,20,0.00,,---,0.00,VWS V14.01,2013-03-03 20:14:00,
2013-03-03 13:19:00,79.3,34.8,29.97,NNW,338,0.0,0.0,20,0.00,,---,0.00,VWS V14.01,2013-03-03 20:19:00,
2013-03-03 13:24:00,79.5,35.0,29.97,West,270,0.0,0.0,20,0.00,,---,0.00,VWS V14.01,2013-03-03 20:24:00,
2013-03-03 13:29:00,79.7,35.1,29.97,WSW,248,0.0,0.0,20,0.00,,---,0.00,VWS V14.01,2013-03-03 20:29:00,
2013-03-03 13:34:00,79.2,34.7,29.97,WSW,248,0.0,0.0,20,0.00,,---,0.00,VWS V14.01,2013-03-03 20:34:00,
2013-03-03 13:39:00,79.3,34.8,29.97,SW,225,0.0,0.0,20,0.00,,---,0.00,VWS V14.01,2013-03-03 20:39:00,
2013-03-03 13:44:00,80.1,35.4,29.97,WNW,292,0.0,0.0,20,0.00,,---,0.00,VWS V14.01,2013-03-03 20:44:00,
2013-03-03 13:49:00,80.1,35.4,29.97,SW,225,0.0,0.0,20,0.00,,---,0.00,VWS V14.01,2013-03-03 20:49:00,
2013-03-03 13:54:00,80.4,35.7,29.97,NW,315,0.0,0.0,20,0.00,,---,0.00,VWS V14.01,2013-03-03 20:54:00,
2013-03-03 13:59:00,80.8,34.7,29.97,SW,225,0.0,1.6,19,0.00,,---,0.00,VWS V14.01,2013-03-03 20:59:00,
2013-03-03 14:04:00,80.8,34.7,29.97,NNW,338,1.6,3.6,19,0.00,,---,0.00,VWS V14.01,2013-03-03 21:04:00,
2013-03-03 14:09:00,80.4,35.7,29.97,NW,315,0.0,0.0,20,0.00,,---,0.00,VWS V14.01,2013-03-03 21:09:00,
2013-03-03 14:14:00,80.6,34.6,29.97,WSW,248,2.7,2.7,19,0.00,,---,0.00,VWS V14.01,2013-03-03 21:14:00,
2013-03-03 14:19:00,80.2,35.6,29.97,SW,225,0.9,2.7,20,0.00,,---,0.00,VWS V14.01,2013-03-03 21:19:00,
2013-03-03 14:25:00,80.8,34.7,29.97,WSW,248,0.9,0.9,19,0.00,,---,0.00,VWS V14.01,2013-03-03 21:25:00,
2013-03-03 14:30:00,80.8,34.7,29.97,SW,225,2.0,2.2,19,0.00,,---,0.00,VWS V14.01,2013-03-03 21:30:00,
2013-03-03 14:35:00,80.8,34.7,29.97,SW,225,5.6,5.6,19,0.00,,---,0.00,VWS V14.01,2013-03-03 21:35:00,
2013-03-03 14:40:00,80.4,31.7,29.97,SW,225,0.0,0.0,17,0.00,,---,0.00,VWS V14.01,2013-03-03 21:40:00,
2013-03-03 14:45:00,80.2,31.5,29.94,SW,225,0.0,0.0,17,0.00,,---,0.00,VWS V14.01,2013-03-03 21:45:00,
2013-03-03 14:50:00,80.1,31.4,29.94,SW,225,0.0,0.0,17,0.00,,---,0.00,VWS V14.01,2013-03-03 21:50:00,
2013-03-03 14:55:00,79.3,30.8,29.94,SW,225,0.0,0.0,17,0.00,,---,0.00,VWS V14.01,2013-03-03 21:55:00,
2013-03-03 15:00:00,79.0,30.5,29.94,South,180,0.0,0.0,17,0.00,,---,0.00,VWS V14.01,2013-03-03 22:00:00,
2013-03-03 15:05:00,79.3,34.8,29.94,WSW,248,0.0,0.0,20,0.00,,---,0.00,VWS V14.01,2013-03-03 22:05:00,
2013-03-03 15:10:00,79.7,35.1,29.94,SW,225,0.0,0.0,20,0.00,,---,0.00,VWS V14.01,2013-03-03 22:10:00,
2013-03-03 15:15:00,79.5,30.9,29.94,WNW,292,0.0,0.0,17,0.00,,---,0.00,VWS V14.01,2013-03-03 22:15:00,
2013-03-03 15:20:00,79.0,30.5,29.94,WSW,248,0.0,0.0,17,0.00,,---,0.00,VWS V14.01,2013-03-03 22:20:00,
2013-03-03 15:25:00,79.3,30.8,29.94,West,270,0.0,0.0,17,0.00,,---,0.00,VWS V14.01,2013-03-03 22:25:00,
2013-03-03 15:30:00,79.2,30.6,29.94,SW,225,0.0,1.3,17,0.00,,---,0.00,VWS V14.01,2013-03-03 22:30:00,
2013-03-03 15:36:00,78.4,31.5,29.94,WSW,248,0.0,0.0,18,0.00,,---,0.00,VWS V14.01,2013-03-03 22:36:00,
2013-03-03 15:41:00,77.9,31.0,29.94,WSW,248,0.0,0.0,18,0.00,,---,0.00,VWS V14.01,2013-03-03 22:41:00,
2013-03-03 15:46:00,77.7,30.9,29.94,WSW,248,0.0,0.0,18,0.00,,---,0.00,VWS V14.01,2013-03-03 22:46:00,
2013-03-03 15:51:00,77.5,33.3,29.94,SW,225,0.0,0.0,20,0.00,,---,0.00,VWS V14.01,2013-03-03 22:51:00,
2013-03-03 15:56:00,77.4,33.2,29.91,WSW,248,0.0,0.0,20,0.00,,---,0.00,VWS V14.01,2013-03-03 22:56:00,
2013-03-03 16:01:00,77.4,33.2,29.91,SW,225,0.0,0.0,20,0.00,,---,0.00,VWS V14.01,2013-03-03 23:01:00,
2013-03-03 16:06:00,77.0,32.9,29.91,WSW,248,0.0,0.0,20,0.00,,---,0.00,VWS V14.01,2013-03-03 23:06:00,
2013-03-03 16:11:00,76.5,29.9,29.91,SE,135,0.0,0.0,18,0.00,,---,0.00,VWS V14.01,2013-03-03 23:11:00,
2013-03-03 16:16:00,76.5,32.5,29.91,South,180,0.0,0.0,20,0.00,,---,0.00,VWS V14.01,2013-03-03 23:16:00,
2013-03-03 16:21:00,76.5,32.5,29.91,SW,225,0.0,0.0,20,0.00,,---,0.00,VWS V14.01,2013-03-03 23:21:00,
2013-03-03 16:26:00,75.9,32.0,29.94,SW,225,1.1,4.3,20,0.00,,---,0.00,VWS V14.01,2013-03-03 23:26:00,
2013-03-03 16:31:00,75.7,31.9,29.94,SSW,202,0.0,2.7,20,0.00,,---,0.00,VWS V14.01,2013-03-03 23:31:00,
2013-03-03 16:36:00,75.4,31.6,29.94,SSE,158,0.0,0.0,20,0.00,,---,0.00,VWS V14.01,2013-03-03 23:36:00,
2013-03-03 16:41:00,75.2,31.4,29.91,SW,225,0.0,0.0,20,0.00,,---,0.00,VWS V14.01,2013-03-03 23:41:00,
2013-03-03 16:46:00,75.0,32.5,29.91,WSW,248,0.0,0.0,21,0.00,,---,0.00,VWS V14.01,2013-03-03 23:46:00,
2013-03-03 16:56:00,75.6,31.7,29.91,WSW,248,0.0,0.0,20,0.00,,---,0.00,VWS V14.01,2013-03-03 23:56:00,
2013-03-03 17:01:00,75.0,32.5,29.91,SW,225,0.0,0.0,21,0.00,,---,0.00,VWS V14.01,2013-03-04 00:01:00,
2013-03-03 17:06:00,74.7,32.2,29.91,SSW,202,0.0,0.0,21,0.00,,---,0.00,VWS V14.01,2013-03-04 00:06:00,
2013-03-03 17:11:00,74.3,31.9,29.91,WSW,248,2.0,2.0,21,0.00,,---,0.00,VWS V14.01,2013-03-04 00:11:00,
2013-03-03 17:16:00,73.9,31.6,29.91,West,270,0.0,0.0,21,0.00,,---,0.00,VWS V14.01,2013-03-04 00:16:00,
2013-03-03 17:21:00,73.4,31.1,29.91,WNW,292,0.0,0.0,21,0.00,,---,0.00,VWS V14.01,2013-03-04 00:21:00,
2013-03-03 17:26:00,72.9,30.7,29.94,SW,225,0.0,0.0,21,0.00,,---,0.00,VWS V14.01,2013-03-04 00:26:00,
2013-03-03 17:31:00,72.5,30.4,29.94,NW,315,0.0,0.0,21,0.00,,---,0.00,VWS V14.01,2013-03-04 00:31:00,
2013-03-03 17:36:00,72.1,27.6,29.94,West,270,0.0,1.3,19,0.00,,---,0.00,VWS V14.01,2013-03-04 00:36:00,
2013-03-03 17:41:00,71.8,27.3,29.94,NW,315,0.0,0.0,19,0.00,,---,0.00,VWS V14.01,2013-03-04 00:41:00,
2013-03-03 17:47:00,71.6,27.2,29.94,North,0,0.0,0.0,19,0.00,,---,0.00,VWS V14.01,2013-03-04 00:47:00,
2013-03-03 17:52:00,71.2,26.9,29.94,WNW,292,0.9,0.9,19,0.00,,---,0.00,VWS V14.01,2013-03-04 00:52:00,
2013-03-03 17:57:00,70.9,26.6,29.94,West,270,0.0,0.0,19,0.00,,---,0.00,VWS V14.01,2013-03-04 00:57:00,
2013-03-03 18:02:00,70.7,26.5,29.94,North,0,0.0,0.0,19,0.00,,---,0.00,VWS V14.01,2013-03-04 01:02:00,
2013-03-03 18:25:00,69.8,25.7,29.94,ESE,112,0.0,0.0,19,0.00,,---,0.00,VWS V14.01,2013-03-04 01:25:00,
2013-03-03 18:30:00,69.1,26.4,29.94,ENE,68,0.0,0.0,20,0.00,,---,0.00,VWS V14.01,2013-03-04 01:30:00,
2013-03-03 18:35:00,68.9,26.2,29.94,ENE,68,0.0,0.0,20,0.00,,---,0.00,VWS V14.01,2013-03-04 01:35:00,
2013-03-03 18:40:00,68.7,26.1,29.94,ENE,68,0.0,0.0,20,0.00,,---,0.00,VWS V14.01,2013-03-04 01:40:00,
2013-03-03 18:45:00,68.7,26.1,29.94,ENE,68,0.0,0.0,20,0.00,,---,0.00,VWS V14.01,2013-03-04 01:45:00,
2013-03-03 18:50:00,68.4,25.8,29.94,ENE,68,0.0,0.0,20,0.00,,---,0.00,VWS V14.01,2013-03-04 01:50:00,
2013-03-03 18:55:00,68.0,27.8,29.94,SE,135,0.0,0.0,22,0.00,,---,0.00,VWS V14.01,2013-03-04 01:55:00,
2013-03-03 19:00:00,67.5,27.3,29.94,SE,135,0.0,0.0,22,0.00,,---,0.00,VWS V14.01,2013-03-04 02:00:00,
2013-03-03 19:06:00,67.6,27.5,29.94,WNW,292,0.0,0.0,22,0.00,,---,0.00,VWS V14.01,2013-03-04 02:06:00,
2013-03-03 19:11:00,67.5,27.3,29.94,ENE,68,0.0,0.0,22,0.00,,---,0.00,VWS V14.01,2013-03-04 02:11:00,
2013-03-03 19:16:00,67.3,27.2,29.94,West,270,0.0,0.0,22,0.00,,---,0.00,VWS V14.01,2013-03-04 02:16:00,
2013-03-03 19:21:00,67.5,27.3,29.94,NNW,338,0.0,0.0,22,0.00,,---,0.00,VWS V14.01,2013-03-04 02:21:00,
2013-03-03 19:26:00,67.8,27.6,29.94,NW,315,0.0,0.0,22,0.00,,---,0.00,VWS V14.01,2013-03-04 02:26:00,
2013-03-03 19:31:00,67.8,27.6,29.94,NE,45,0.0,0.0,22,0.00,,---,0.00,VWS V14.01,2013-03-04 02:31:00,
2013-03-03 19:36:00,68.4,28.1,29.94,NE,45,0.0,0.0,22,0.00,,---,0.00,VWS V14.01,2013-03-04 02:36:00,
2013-03-03 19:41:00,68.4,28.1,29.94,NE,45,0.0,0.0,22,0.00,,---,0.00,VWS V14.01,2013-03-04 02:41:00,
2013-03-03 19:46:00,68.4,28.1,29.94,SW,225,2.2,2.2,22,0.00,,---,0.00,VWS V14.01,2013-03-04 02:46:00,
2013-03-03 19:51:00,68.9,28.5,29.94,North,0,0.0,0.0,22,0.00,,---,0.00,VWS V14.01,2013-03-04 02:51:00,
2013-03-03 19:56:00,69.3,28.8,29.91,SE,135,1.1,1.1,22,0.00,,---,0.00,VWS V14.01,2013-03-04 02:56:00,
2013-03-03 20:01:00,69.1,28.7,29.91,SE,135,0.0,0.0,22,0.00,,---,0.00,VWS V14.01,2013-03-04 03:01:00,
2013-03-03 20:06:00,68.7,28.4,29.91,SSE,158,0.0,0.0,22,0.00,,---,0.00,VWS V14.01,2013-03-04 03:06:00,
2013-03-03 20:11:00,68.2,27.9,29.91,SSE,158,0.0,0.0,22,0.00,,---,0.00,VWS V14.01,2013-03-04 03:11:00,
2013-03-03 20:16:00,68.0,27.8,29.91,South,180,0.0,0.0,22,0.00,,---,0.00,VWS V14.01,2013-03-04 03:16:00,
2013-03-03 20:21:00,68.0,27.8,29.91,WNW,292,0.0,0.0,22,0.00,,---,0.00,VWS V14.01,2013-03-04 03:21:00,
2013-03-03 20:26:00,67.8,28.7,29.94,West,270,0.0,0.0,23,0.00,,---,0.00,VWS V14.01,2013-03-04 03:26:00,
2013-03-03 20:31:00,67.8,28.7,29.94,West,270,0.0,0.0,23,0.00,,---,0.00,VWS V14.01,2013-03-04 03:31:00,
2013-03-03 20:36:00,67.5,28.4,29.94,WSW,248,0.0,0.0,23,0.00,,---,0.00,VWS V14.01,2013-03-04 03:36:00,
2013-03-03 20:41:00,67.3,28.2,29.94,SW,225,0.0,2.9,23,0.00,,---,0.00,VWS V14.01,2013-03-04 03:41:00,
2013-03-03 20:46:00,67.1,28.1,29.94,WSW,248,3.1,3.1,23,0.00,,---,0.00,VWS V14.01,2013-03-04 03:46:00,
2013-03-03 20:51:00,66.9,27.9,29.94,SW,225,0.0,0.0,23,0.00,,---,0.00,VWS V14.01,2013-03-04 03:51:00,
2013-03-03 20:56:00,66.9,27.9,29.94,South,180,0.0,0.0,23,0.00,,---,0.00,VWS V14.01,2013-03-04 03:56:00,
2013-03-03 21:01:00,66.6,27.6,29.94,NW,315,0.0,0.0,23,0.00,,---,0.00,VWS V14.01,2013-03-04 04:01:00,
2013-03-03 21:06:00,66.6,27.6,29.94,NNW,338,0.0,0.0,23,0.00,,---,0.00,VWS V14.01,2013-03-04 04:06:00,
2013-03-03 21:11:00,66.6,27.6,29.91,North,0,0.0,0.0,23,0.00,,---,0.00,VWS V14.01,2013-03-04 04:11:00,
2013-03-03 21:16:00,66.4,27.5,29.91,NNW,338,0.0,0.0,23,0.00,,---,0.00,VWS V14.01,2013-03-04 04:16:00,
2013-03-03 21:21:00,66.0,27.2,29.91,NE,45,0.0,0.0,23,0.00,,---,0.00,VWS V14.01,2013-03-04 04:21:00,
2013-03-03 21:27:00,65.8,27.0,29.91,NNE,22,0.0,0.0,23,0.00,,---,0.00,VWS V14.01,2013-03-04 04:27:00,
2013-03-03 21:32:00,65.8,27.0,29.91,NNE,22,0.0,0.0,23,0.00,,---,0.00,VWS V14.01,2013-03-04 04:32:00,
2013-03-03 21:37:00,65.8,27.0,29.91,WNW,292,0.0,0.0,23,0.00,,---,0.00,VWS V14.01,2013-03-04 04:37:00,
2013-03-03 21:42:00,65.7,26.9,29.91,NW,315,0.0,0.0,23,0.00,,---,0.00,VWS V14.01,2013-03-04 04:42:00,
2013-03-03 21:47:00,65.7,26.9,29.91,North,0,0.0,0.0,23,0.00,,---,0.00,VWS V14.01,2013-03-04 04:47:00,
2013-03-03 21:52:00,65.5,26.7,29.91,NNE,22,0.0,0.0,23,0.00,,---,0.00,VWS V14.01,2013-03-04 04:52:00,
2013-03-03 21:57:00,65.3,26.6,29.91,NNW,338,0.0,0.0,23,0.00,,---,0.00,VWS V14.01,2013-03-04 04:57:00,
2013-03-03 22:00:00,65.1,26.4,29.91,NNW,338,0.0,0.0,23,0.00,,---,0.00,VWS V14.01,2013-03-04 05:00:00,
2013-03-03 22:05:00,65.1,26.4,29.91,NNW,338,0.0,0.0,23,0.00,,---,0.00,VWS V14.01,2013-03-04 05:05:00,
2013-03-03 22:10:00,65.1,26.4,29.91,NW,315,0.0,0.0,23,0.00,,---,0.00,VWS V14.01,2013-03-04 05:10:00,
2013-03-03 22:16:00,64.8,26.1,29.91,NW,315,0.0,0.0,23,0.00,,---,0.00,VWS V14.01,2013-03-04 05:16:00,
2013-03-03 22:21:00,64.6,26.0,29.91,NW,315,0.0,0.0,23,0.00,,---,0.00,VWS V14.01,2013-03-04 05:21:00,
2013-03-03 22:26:00,64.4,25.8,29.91,NW,315,0.0,0.0,23,0.00,,---,0.00,VWS V14.01,2013-03-04 05:26:00,
2013-03-03 22:31:00,64.0,26.5,29.91,NW,315,0.0,0.0,24,0.00,,---,0.00,VWS V14.01,2013-03-04 05:31:00,
2013-03-03 22:36:00,63.7,26.2,29.91,NW,315,0.0,0.0,24,0.00,,---,0.00,VWS V14.01,2013-03-04 05:36:00,
2013-03-03 22:41:00,63.5,26.1,29.91,NW,315,0.0,0.0,24,0.00,,---,0.00,VWS V14.01,2013-03-04 05:41:00,
2013-03-03 22:46:00,63.1,25.8,29.91,NW,315,0.0,0.0,24,0.00,,---,0.00,VWS V14.01,2013-03-04 05:46:00,
2013-03-03 22:51:00,63.0,25.6,29.91,NW,315,0.0,0.0,24,0.00,,---,0.00,VWS V14.01,2013-03-04 05:51:00,
2013-03-03 22:56:00,62.6,25.3,29.91,ENE,68,0.0,0.0,24,0.00,,---,0.00,VWS V14.01,2013-03-04 05:56:00,
2013-03-03 23:01:00,62.2,26.0,29.91,ENE,68,0.0,0.0,25,0.00,,---,0.00,VWS V14.01,2013-03-04 06:01:00,
2013-03-03 23:06:00,62.1,25.9,29.91,WNW,292,0.0,0.0,25,0.00,,---,0.00,VWS V14.01,2013-03-04 06:06:00,
2013-03-03 23:11:00,62.2,26.0,29.91,NW,315,0.0,0.0,25,0.00,,---,0.00,VWS V14.01,2013-03-04 06:11:00,
2013-03-03 23:16:00,62.4,26.2,29.91,NW,315,0.0,0.0,25,0.00,,---,0.00,VWS V14.01,2013-03-04 06:16:00,
2013-03-03 23:21:00,62.4,26.2,29.91,NW,315,0.0,0.0,25,0.00,,---,0.00,VWS V14.01,2013-03-04 06:21:00,
2013-03-03 23:26:00,62.2,26.0,29.91,WSW,248,0.0,0.0,25,0.00,,---,0.00,VWS V14.01,2013-03-04 06:26:00,
2013-03-03 23:31:00,62.1,25.9,29.91,SSW,202,0.0,0.0,25,0.00,,---,0.00,VWS V14.01,2013-03-04 06:31:00,
2013-03-03 23:36:00,62.1,25.9,29.91,SSW,202,0.0,0.0,25,0.00,,---,0.00,VWS V14.01,2013-03-04 06:36:00,
2013-03-03 23:41:00,62.4,26.2,29.91,SE,135,0.0,0.0,25,0.00,,---,0.00,VWS V14.01,2013-03-04 06:41:00,
2013-03-03 23:47:00,62.6,26.3,29.91,SSE,158,0.0,0.0,25,0.00,,---,0.00,VWS V14.01,2013-03-04 06:47:00,
2013-03-03 23:52:00,63.0,25.6,29.91,SSE,158,0.0,0.0,24,0.00,,---,0.00,VWS V14.01,2013-03-04 06:52:00,
2013-03-03 23:57:00,62.8,25.5,29.91,SW,225,0.0,0.0,24,0.00,,---,0.00,VWS V14.01,2013-03-04 06:57:00,